Location: Gdynia
(54.5193°N, 18.5395°E)
Time: 06:47:57
(UTC+02:00)

ISS - Visible Passes

Search period start: 20 September 2018 00:00
Search period end: 30 September 2018 00:00
Orbit: 402 x 408 km, 51.6° (Epoch: 20 September)

Date Brightness Start Highest point End Pass type
(mag) Time Alt. Az. Time Alt. Az. Time Alt. Az.
23 Sep -1.0 21:11:43 10° SW 21:11:54 11° SW 21:11:54 11° SW visible
24 Sep -2.3 20:20:10 10° SSW 20:22:20 21° SSE 20:22:20 21° SSE visible
25 Sep -1.9 19:28:51 10° S 19:30:59 16° SSE 19:32:36 12° ESE visible
25 Sep -1.9 21:03:47 10° WSW 21:05:17 23° SW 21:05:17 23° SW visible
26 Sep -3.0 20:11:59 10° SW 20:14:59 32° SSE 20:15:25 31° SE visible
26 Sep -0.7 21:47:56 10° WSW 21:48:06 11° WSW 21:48:06 11° WSW visible
27 Sep -2.4 19:20:19 10° SSW 19:23:04 25° SSE 19:25:29 12° E visible
27 Sep -2.6 20:55:58 10° WSW 20:58:09 34° SW 20:58:09 34° SW visible
28 Sep -3.3 20:04:02 10° WSW 20:07:11 43° SSE 20:08:07 33° SE visible
28 Sep -0.9 21:40:14 10° W 21:40:47 14° W 21:40:47 14° W visible
29 Sep -2.9 19:12:09 10° SW 19:15:13 35° SSE 19:18:02 11° E visible
29 Sep -2.9 20:48:12 10° WSW 20:50:42 41° SW 20:50:42 41° SW visible
